TimeCDT,TemperatureF,Dew PointF,Humidity,Sea Level PressureIn,VisibilityMPH,Wind Direction,Wind SpeedMPH,Gust SpeedMPH,PrecipitationIn,Events,Conditions,WindDirDegrees,DateUTC
12:15 AM,77.2,60.6,56,29.97,10.0,ENE,8.1,-,N/A,,Clear,60,2013-09-03 05:15:00
12:35 AM,76.1,61.0,59,29.97,10.0,ENE,8.1,-,N/A,,Clear,60,2013-09-03 05:35:00
12:55 AM,75.6,61.2,61,29.98,10.0,ENE,8.1,-,N/A,,Clear,60,2013-09-03 05:55:00
1:15 AM,75.2,61.3,62,29.98,10.0,ENE,5.8,-,N/A,,Clear,70,2013-09-03 06:15:00
1:35 AM,74.8,61.7,64,29.98,10.0,ENE,6.9,-,N/A,,Clear,70,2013-09-03 06:35:00
1:55 AM,73.6,61.7,66,29.99,10.0,East,3.5,-,N/A,,Clear,90,2013-09-03 06:55:00
2:15 AM,73.4,61.7,67,29.99,10.0,NE,3.5,-,N/A,,Clear,50,2013-09-03 07:15:00
2:35 AM,74.1,61.9,65,29.99,10.0,NE,4.6,-,N/A,,Clear,50,2013-09-03 07:35:00
2:55 AM,70.9,61.9,73,29.99,10.0,NNE,5.8,-,N/A,,Clear,20,2013-09-03 07:55:00
3:15 AM,72.1,61.9,70,29.99,10.0,NNE,3.5,-,N/A,,Scattered Clouds,30,2013-09-03 08:15:00
3:35 AM,71.6,62.2,72,29.99,10.0,North,3.5,-,N/A,,Scattered Clouds,10,2013-09-03 08:35:00
3:55 AM,71.6,62.2,72,29.99,10.0,Calm,Calm,-,N/A,,Scattered Clouds,0,2013-09-03 08:55:00
4:15 AM,71.4,62.2,73,29.99,10.0,Calm,Calm,-,N/A,,Scattered Clouds,0,2013-09-03 09:15:00
4:35 AM,70.0,62.2,76,29.99,10.0,North,5.8,-,N/A,,Clear,10,2013-09-03 09:35:00
4:55 AM,68.4,62.1,80,29.99,10.0,North,5.8,-,N/A,,Clear,350,2013-09-03 09:55:00
5:15 AM,68.5,62.4,81,29.99,10.0,North,6.9,-,N/A,,Clear,360,2013-09-03 10:15:00
5:35 AM,68.0,62.6,83,30.00,10.0,Calm,Calm,-,N/A,,Clear,0,2013-09-03 10:35:00
5:55 AM,66.6,62.2,86,30.00,10.0,North,4.6,-,N/A,,Clear,10,2013-09-03 10:55:00
6:15 AM,67.1,62.2,84,30.00,10.0,NNE,3.5,-,N/A,,Clear,20,2013-09-03 11:15:00
6:35 AM,66.9,62.2,85,30.01,10.0,North,5.8,-,N/A,,Clear,360,2013-09-03 11:35:00
7:55 AM,69.8,62.6,78,30.02,10.0,North,4.6,-,N/A,,Clear,10,2013-09-03 12:55:00
8:55 AM,75.2,64.4,69,30.02,10.0,NE,5.8,-,N/A,,Clear,40,2013-09-03 13:55:00
9:55 AM,82.4,64.4,54,30.03,10.0,NNE,8.1,-,N/A,,Clear,20,2013-09-03 14:55:00
10:55 AM,86.0,64.4,48,30.04,10.0,NNE,4.6,-,N/A,,Clear,30,2013-09-03 15:55:00
11:55 AM,89.6,60.8,38,30.03,10.0,NE,8.1,-,N/A,,Clear,40,2013-09-03 16:55:00
12:55 PM,91.4,59.0,34,30.01,10.0,North,9.2,-,N/A,,Clear,360,2013-09-03 17:55:00
1:55 PM,93.2,55.4,28,29.99,10.0,East,4.6,-,N/A,,Clear,80,2013-09-03 18:55:00
2:55 PM,93.2,57.2,30,29.97,10.0,North,5.8,-,N/A,,Clear,350,2013-09-03 19:55:00
3:55 PM,95.0,60.8,32,29.95,10.0,NE,5.8,-,N/A,,Clear,40,2013-09-03 20:55:00
7:55 PM,86.0,62.6,45,29.94,10.0,NNE,8.1,-,N/A,,Clear,20,2013-09-04 00:55:00
11:35 PM,76.3,63.1,64,30.00,10.0,NNW,4.6,-,N/A,,Clear,330,2013-09-04 04:35:00
11:55 PM,76.6,63.1,63,30.01,10.0,NW,3.5,-,N/A,,Clear,320,2013-09-04 04:55:00